GW1885 Weather Reports


Display with metric or nautical units.
time (UTC)temp
F
wind
direction
speed
MPH
gust
MPH
rain 1hr
in
rain 24hr
in
rain mn
in
humidity
%
barometer
mb
20260901143004 64 198 2.0 7.0 0.02 0.48 0.48 86 1013.0
20260901142503 64 290 2.0 7.0 0.02 0.48 0.48 87 1012.9
20260901142004 64 317 1.0 9.0 0.02 0.48 0.48 89 1012.9
20260901141504 64 302 2.0 9.0 0.02 0.48 0.48 90 1012.8
20260901141005 64 293 2.0 8.0 0.02 0.48 0.48 88 1012.8
20260901140525 64 325 2.0 8.0 0.02 0.48 0.48 89 1012.7
20260901140025 65 9 2.0 8.0 0.03 0.48 0.48 92 1012.7
20260901135503 64 322 2.0 9.0 0.04 0.48 0.48 94 1012.8
20260901135005 63 309 2.0 9.0 0.04 0.48 0.48 93 1012.6
20260901134504 62 305 2.0 6.0 0.04 0.48 0.48 95 1012.8
20260901134004 62 322 2.0 6.0 0.04 0.48 0.48 93 1012.7
20260901133503 63 321 1.0 4.0 0.02 0.47 0.47 93 1012.7
20260901133004 63 313 2.0 4.0 0.02 0.46 0.46 93 1012.7
20260901132503 63 322 2.0 6.0 0.02 0.46 0.46 93 1012.8
20260901132005 63 2 2.0 7.0 0.01 0.46 0.46 93 1012.7
20260901131504 63 62 2.0 7.0 0.01 0.46 0.46 94 1012.9
20260901131003 63 73 2.0 4.0 0.01 0.46 0.46 94 1012.9
20260901130505 62 48 2.0 7.0 0.01 0.46 0.46 93 1012.8
20260901130004 63 41 3.0 7.0 0.01 0.45 0.45 89 1012.9
20260901125525 63 77 3.0 8.0 0.00 0.44 0.44 86 1012.8
20260901125005 64 105 3.0 8.0 0.00 0.44 0.44 84 1012.6
20260901124505 65 341 3.0 8.0 0.00 0.44 0.44 82 1012.8
20260901124004 66 29 3.0 9.0 0.00 0.44 0.44 81 1012.6
20260901123504 66 47 3.0 9.0 0.00 0.44 0.44 81 1012.5
20260901123004 67 20 2.0 7.0 0.00 0.44 0.44 82 1012.5
20260901122525 68 4 2.0 6.0 0.00 0.44 0.44 87 1012.5
20260901122004 66 49 2.0 6.0 0.00 0.44 0.44 86 1012.5
20260901121504 65 34 2.0 6.0 0.00 0.44 0.44 86 1012.4
20260901121005 65 335 2.0 6.0 0.00 0.44 0.44 84 1012.4
20260901120112 65 15 1.0 3.0 0.00 0.44 0.44 87 1012.4
20260901115505 65 18 2.0 6.0 0.00 0.44 0.44 86 1012.5
20260901115004 65 40 2.0 8.0 0.00 0.44 0.44 85 1012.5
20260901114503 65 61 3.0 8.0 0.00 0.44 0.44 85 1012.4
20260901114004 66 75 2.0 7.0 0.01 0.44 0.44 86 1012.3
20260901113505 64 70 2.0 6.0 0.01 0.44 0.44 90 1012.6
20260901113004 65 68 3.0 6.0 0.01 0.44 0.44 85 1012.4
20260901112524 66 87 2.0 6.0 0.01 0.44 0.44 86 1012.4
20260901112005 65 85 1.0 6.0 0.01 0.44 0.44 91 1012.5
20260901111504 64 20 1.0 3.0 0.01 0.44 0.44 92 1012.5
20260901111004 63 4 2.0 9.0 0.01 0.44 0.44 91 1012.5
20260901110504 63 326 2.0 9.0 0.01 0.44 0.44 92 1012.5
20260901110005 63 310 2.0 4.0 0.01 0.44 0.44 93 1012.6
20260901105504 62 351 2.0 8.0 0.01 0.44 0.44 93 1012.3
20260901105003 62 43 2.0 8.0 0.02 0.44 0.44 92 1012.4
20260901104504 63 44 2.0 7.0 0.01 0.44 0.44 90 1012.5
20260901104004 64 34 2.0 4.0 0.00 0.43 0.43 89 1012.4
20260901103504 65 24 2.0 9.0 0.00 0.43 0.43 86 1012.4
20260901103004 65 18 2.0 9.0 0.00 0.43 0.43 86 1012.3
20260901102503 65 49 2.0 7.0 0.00 0.43 0.43 88 1012.4
20260901102003 64 59 2.0 6.0 0.00 0.43 0.43 89 1012.2
20260901101504 64 81 2.0 7.0 0.00 0.43 0.43 90 1012.0
20260901101003 63 79 2.0 7.0 0.00 0.43 0.43 92 1012.2
20260901100524 62 78 2.0 7.0 0.00 0.43 0.43 93 1012.3
20260901100024 62 88 2.0 7.0 0.00 0.43 0.43 93 1012.1
20260901095504 62 59 2.0 6.0 0.00 0.43 0.43 94 1012.4
20260901095004 62 10 1.0 4.0 0.00 0.43 0.43 95 1012.1
20260901094504 62 74 2.0 6.0 0.00 0.43 0.43 93 1012.1
20260901094005 62 62 2.0 7.0 0.00 0.43 0.43 92 1012.2
20260901093524 62 29 2.0 8.0 0.00 0.43 0.43 92 1012.0
20260901093004 62 43 3.0 9.0 0.00 0.43 0.43 92 1012.0
20260901092505 62 42 2.0 9.0 0.00 0.43 0.43 90 1012.1
20260901092005 63 48 2.0 6.0 0.00 0.43 0.43 92 1011.9
20260901091505 62 61 2.0 6.0 0.00 0.43 0.43 94 1012.0
20260901091005 61 74 2.0 6.0 0.00 0.43 0.43 94 1011.9
20260901090506 61 84 2.0 6.0 0.00 0.43 0.43 94 1011.8
20260901090005 61 76 2.0 6.0 0.00 0.43 0.43 93 1012.0
20260901085525 61 74 2.0 6.0 0.00 0.43 0.43 94 1011.8
20260901085006 61 77 2.0 6.0 0.00 0.43 0.43 93 1011.8
20260901084505 61 72 2.0 6.0 0.00 0.43 0.43 93 1011.7
20260901084026 61 47 2.0 7.0 0.00 0.43 0.43 93 1011.8
20260901083505 62 35 2.0 7.0 0.00 0.43 0.43 96 1011.6
20260901083005 60 71 2.0 7.0 0.00 0.43 0.43 97 1011.7
20260901082505 60 80 2.0 7.0 0.00 0.43 0.43 97 1011.9
20260901082005 60 75 2.0 6.0 0.00 0.43 0.43 98 1011.6
20260901081505 60 79 2.0 6.0 0.00 0.43 0.43 98 1011.5
20260901081005 59 79 2.0 6.0 0.00 0.43 0.43 98 1011.6
20260901080505 59 82 2.0 6.0 0.00 0.43 0.43 98 1011.6
20260901080026 59 77 2.0 7.0 0.00 0.43 0.43 98 1011.5
20260901075525 59 57 2.0 7.0 0.00 0.43 0.43 99 1011.5
20260901075005 59 30 1.0 4.0 0.00 0.43 0.43 99 1011.4
20260901074505 58 66 2.0 4.0 0.00 0.43 0.43 99 1011.4
20260901074026 58 85 2.0 4.0 0.00 0.43 0.43 99 1011.4
20260901073504 58 83 2.0 4.0 0.00 0.43 0.43 99 1011.2
20260901073006 58 83 2.0 4.0 0.00 0.43 0.43 99 1011.2
20260901072505 58 97 2.0 6.0 0.00 0.43 0.43 99 1011.1
20260901072006 58 101 2.0 6.0 0.00 0.43 0.43 99 1011.2
20260901071504 58 97 2.0 4.0 0.00 0.43 0.43 99 1011.1
20260901071005 58 82 2.0 6.0 0.00 0.43 0.43 99 1011.1
20260901070504 58 74 2.0 6.0 0.00 0.43 0.43 99 1011.0
20260901070005 58 81 2.0 6.0 0.00 0.43 0.43 99 1011.0
20260901065505 58 84 2.0 6.0 0.00 0.43 0.43 99 1011.1
20260901065004 58 73 2.0 4.0 0.00 0.43 0.43 99 1010.9
20260901064504 58 77 1.0 3.0 0.00 0.43 0.43 99 1010.9
20260901064005 58 94 2.0 6.0 0.00 0.43 0.43 99 1010.9
20260901063504 58 90 2.0 6.0 0.01 0.43 0.43 99 1010.8
20260901063004 58 80 2.0 4.0 0.02 0.43 0.43 99 1010.7
20260901062505 58 73 2.0 3.0 0.03 0.43 0.43 99 1010.8
20260901062005 58 79 2.0 4.0 0.04 0.43 0.43 99 1010.5
20260901061526 58 87 2.0 6.0 0.04 0.43 0.43 99 1010.6
20260901061005 58 82 2.0 6.0 0.04 0.43 0.43 99 1010.6
20260901060505 58 75 2.0 4.0 0.04 0.43 0.43 99 1010.6
20260901060005 57 79 2.0 6.0 0.04 0.43 0.43 99 1010.5
20260901055505 57 86 2.0 6.0 0.04 0.43 0.43 99 1010.4
20260901055006 57 89 2.0 4.0 0.04 0.43 0.43 99 1010.4
20260901054526 57 85 2.0 4.0 0.04 0.43 0.43 99 1010.3
20260901054005 57 84 2.0 3.0 0.04 0.43 0.43 99 1010.4
20260901053504 57 82 2.0 4.0 0.03 0.42 0.42 99 1010.3
20260901053006 57 75 2.0 4.0 0.02 0.41 0.41 99 1010.1
20260901052505 57 74 2.0 4.0 0.02 0.40 0.40 99 1010.3
20260901052026 57 76 2.0 4.0 0.01 0.39 0.39 99 1010.1
20260901051505 57 73 2.0 4.0 0.00 0.39 0.39 99 1010.3
20260901051005 57 76 2.0 4.0 0.00 0.39 0.39 99 1010.2
20260901050505 57 82 2.0 4.0 0.00 0.39 0.39 99 1009.8
20260901050005 57 74 2.0 6.0 0.01 0.39 0.39 99 1010.2
20260901045526 57 64 2.0 6.0 0.02 0.39 0.39 99 1010.1
20260901045004 57 58 2.0 8.0 0.04 0.39 0.39 99 1009.9
20260901044506 58 70 2.0 8.0 0.06 0.39 0.39 99 1010.0
20260901044005 58 86 1.0 6.0 0.07 0.39 0.39 99 1009.9
20260901043504 58 81 1.0 6.0 0.08 0.39 0.39 99 1009.9
20260901043005 58 66 2.0 6.0 0.10 0.39 0.39 99 1010.0
20260901042505 58 62 2.0 4.0 0.14 0.39 0.39 99 1010.1
20260901042004 58 58 2.0 4.0 0.22 0.39 0.39 99 1010.1
20260901041526 58 62 2.0 6.0 0.35 0.39 0.39 99 1010.1
20260901041005 58 67 2.0 6.0 0.38 0.39 0.39 99 1009.9
20260901040505 58 79 2.0 4.0 0.38 0.39 0.39 99 1009.8
20260901040006 58 87 2.0 6.0 0.37 0.38 0.38 99 1009.6
20260901035505 58 75 2.0 6.0 0.36 0.37 0.37 99 1009.8
20260901035027 58 66 2.0 4.0 0.35 0.35 0.35 98 1009.7
20260901034505 58 74 2.0 4.0 0.33 0.33 0.33 98 1009.7
20260901034005 58 75 2.0 6.0 0.32 0.32 0.32 98 1009.9
20260901033504 58 79 2.0 6.0 0.30 0.30 0.30 98 1009.8
20260901033004 58 83 3.0 6.0 0.29 0.29 0.29 98 1009.9
20260901032506 59 108 3.0 8.0 0.25 0.25 0.25 98 1009.9
20260901032027 59 127 4.0 9.0 0.16 0.16 0.16 97 1010.1
20260901031504 59 121 3.0 9.0 0.04 0.04 0.04 97 1009.9
20260901031026 59 108 3.0 8.0 0.01 0.01 0.01 97 1009.9
20260901030504 59 100 2.0 6.0 0.00 0.00 0.00 96 1009.8
20260901030005 59 96 3.0 6.0 0.00 0.00 0.00 96 1009.6
20260901025505 59 109 3.0 6.0 0.00 0.00 0.00 96 1009.9
20260901025005 59 119 3.0 6.0 0.00 0.00 0.00 95 1009.8
20260901024505 60 112 3.0 4.0 0.00 0.00 0.00 94 1009.8
20260901024004 60 107 2.0 4.0 0.00 0.00 0.00 94 1009.8
20260901023505 60 103 2.0 3.0 0.00 0.00 0.00 93 1009.8
20260901023006 60 101 2.0 3.0 0.00 0.00 0.00 93 1009.7
20260901022505 60 107 2.0 3.0 0.00 0.00 0.00 93 1009.7
20260901022026 60 110 2.0 3.0 0.00 0.00 0.00 93 1009.5
20260901021526 60 105 2.0 3.0 0.00 0.00 0.00 93 1009.6
20260901021004 60 108 1.0 3.0 0.00 0.00 0.00 93 1009.5
20260901020505 60 110 2.0 4.0 0.00 0.00 0.00 93 1009.6
20260901020006 60 107 2.0 4.0 0.00 0.00 0.00 94 1009.6
20260901015505 60 109 2.0 3.0 0.00 0.00 0.00 94 1009.5
20260901015005 60 109 2.0 4.0 0.00 0.00 0.00 95 1009.4
20260901014504 60 109 2.0 4.0 0.00 0.00 0.00 95 1009.4
20260901014006 60 119 1.0 3.0 0.00 0.00 0.00 95 1009.4
20260901013505 60 134 2.0 4.0 0.00 0.00 0.00 95 1009.5
20260901013006 60 138 2.0 6.0 0.00 0.00 0.00 96 1009.3
20260901012505 60 136 2.0 6.0 0.00 0.00 0.00 96 1009.3
20260901012005 60 136 2.0 4.0 0.00 0.00 0.00 96 1009.3
20260901011505 60 131 2.0 3.0 0.00 0.00 0.00 96 1009.5
20260901011004 60 130 2.0 3.0 0.00 0.00 0.00 95 1009.5
20260901010504 60 134 2.0 3.0 0.00 0.00 0.00 95 1009.5
20260901010005 60 133 2.0 3.0 0.00 0.00 0.00 95 1009.5
20260901005525 60 131 2.0 3.0 0.00 0.00 0.00 95 1009.4
20260901005005 60 133 2.0 4.0 0.00 0.00 0.00 95 1009.5
20260901004526 60 137 3.0 4.0 0.00 0.00 0.00 96 1009.5
20260901004005 60 134 3.0 6.0 0.00 0.00 0.00 96 1009.6
20260901003504 60 125 3.0 6.0 0.00 0.00 0.00 96 1009.5
20260901003026 60 129 3.0 6.0 0.00 0.00 0.00 97 1009.5
20260901002504 60 182 2.0 4.0 0.00 0.00 0.00 97 1009.5
20260901002026 60 212 2.0 3.0 0.00 0.00 0.00 97 1009.5
20260901001504 60 213 1.0 3.0 0.00 0.00 0.00 97 1009.4
20260901001004 60 213 1.0 2.0 0.00 0.00 0.00 97 1009.4
20260901000525 60 213 1.0 2.0 0.00 0.00 0.00 97 1009.3
20260901000005 60 213 1.0 2.0 0.00 0.00 0.00 97 1009.1
20260831235526 60 213 1.0 2.0 0.00 0.00 0.00 97 1009.2
20260831235005 60 213 1.0 2.0 0.00 0.00 0.00 97 1009.2
20260831234504 60 213 1.0 2.0 0.00 0.00 0.00 97 1009.2
20260831234004 60 213 1.0 3.0 0.00 0.00 0.00 97 1009.3
20260831233504 60 213 1.0 3.0 0.00 0.00 0.00 97 1009.3
20260831233005 60 213 1.0 3.0 0.00 0.00 0.00 97 1009.4
20260831232504 60 213 1.0 3.0 0.00 0.00 0.00 97 1009.5
20260831232005 60 213 1.0 2.0 0.00 0.00 0.00 97 1009.6
20260831231505 60 213 1.0 2.0 0.00 0.00 0.00 97 1009.6
20260831231004 60 213 2.0 3.0 0.00 0.00 0.00 97 1009.5
20260831230505 60 213 2.0 3.0 0.00 0.00 0.00 97 1009.6
20260831230005 60 213 1.0 2.0 0.00 0.00 0.00 96 1009.6
20260831225504 60 213 1.0 2.0 0.00 0.00 0.00 96 1009.4
20260831225004 61 213 1.0 2.0 0.00 0.00 0.00 96 1009.5
20260831224504 61 213 1.0 2.0 0.00 0.00 0.00 96 1009.5
20260831224004 61 213 1.0 2.0 0.00 0.00 0.00 96 1009.5
20260831223504 60 213 1.0 2.0 0.00 0.00 0.00 96 1009.6
20260831223005 60 213 1.0 2.0 0.00 0.00 0.00 96 1009.6
20260831222505 60 215 1.0 3.0 0.00 0.00 0.00 96 1009.8
20260831222005 60 260 2.0 3.0 0.00 0.00 0.00 96 1010.1
20260831221504 60 311 1.0 2.0 0.00 0.00 0.00 96 1010.0
20260831221005 59 311 1.0 2.0 0.00 0.00 0.00 95 1010.1
20260831220504 60 311 1.0 2.0 0.00 0.00 0.00 95 1010.1
20260831220006 60 311 1.0 1.0 0.00 0.00 0.00 95 1010.3
20260831215505 60 311 0.0 1.0 0.00 0.00 0.00 95 1010.2
20260831215005 60 311 0.0 1.0 0.00 0.00 0.00 94 1010.2
20260831214526 61 311 0.0 1.0 0.00 0.00 0.00 94 1010.2
20260831214005 61 311 0.0 1.0 0.00 0.00 0.00 93 1010.2
20260831213505 61 311 0.0 1.0 0.00 0.00 0.00 93 1010.1
20260831213005 62 311 0.0 1.0 0.00 0.00 0.00 92 1010.2
20260831212505 62 311 0.0 1.0 0.00 0.00 0.00 92 1010.3
20260831212005 62 311 0.0 1.0 0.00 0.00 0.00 91 1010.4
20260831211505 63 311 1.0 1.0 0.00 0.00 0.00 90 1010.3
20260831211005 63 311 1.0 1.0 0.00 0.00 0.00 90 1010.3
20260831210504 64 311 1.0 1.0 0.00 0.00 0.00 90 1010.4
20260831210004 64 297 1.0 1.0 0.00 0.00 0.00 90 1010.2
20260831205505 64 238 1.0 3.0 0.00 0.00 0.00 89 1010.4
20260831205004 64 260 2.0 7.0 0.00 0.00 0.00 90 1010.2
20260831204504 63 269 2.0 7.0 0.00 0.00 0.00 94 1010.4
20260831204004 62 231 1.0 6.0 0.00 0.00 0.00 94 1010.2
20260831203504 62 164 1.0 3.0 0.00 0.00 0.00 94 1010.3
20260831203005 62 139 1.0 4.0 0.00 0.00 0.00 94 1009.9
20260831202526 62 130 1.0 4.0 0.00 0.00 0.00 94 1009.8
20260831202005 62 120 1.0 4.0 0.00 0.00 0.00 94 1009.6
20260831201504 62 119 1.0 2.0 0.00 0.00 0.00 94 1009.9
20260831201004 61 119 1.0 2.0 0.00 0.00 0.00 94 1009.8
20260831200504 61 119 1.0 2.0 0.00 0.00 0.00 94 1010.0
20260831200004 61 118 1.0 2.0 0.00 0.00 0.00 94 1010.0
20260831195525 61 118 1.0 2.0 0.00 0.00 0.00 94 1010.2
20260831195005 62 117 1.0 3.0 0.00 0.00 0.00 93 1009.9
20260831194504 62 117 2.0 3.0 0.00 0.00 0.00 93 1010.2
20260831194005 62 117 2.0 3.0 0.00 0.00 0.00 92 1010.1
20260831193504 62 117 2.0 3.0 0.00 0.00 0.00 92 1010.1
20260831193005 62 116 2.0 3.0 0.00 0.00 0.00 92 1010.3
20260831192504 62 117 2.0 3.0 0.00 0.00 0.00 92 1010.2
20260831192004 62 118 2.0 4.0 0.00 0.00 0.00 92 1010.2
20260831191504 62 117 2.0 4.0 0.00 0.00 0.00 92 1010.1
20260831191005 62 116 1.0 4.0 0.00 0.00 0.00 92 1010.1
20260831190505 62 116 1.0 2.0 0.00 0.00 0.00 92 1010.0
20260831190005 62 115 1.0 2.0 0.00 0.00 0.00 91 1010.1
20260831185505 62 116 2.0 3.0 0.00 0.00 0.00 91 1010.0
20260831185004 62 115 2.0 3.0 0.00 0.00 0.00 91 1010.2
20260831184504 62 114 1.0 2.0 0.00 0.00 0.00 90 1010.1
20260831184004 62 114 1.0 2.0 0.00 0.00 0.00 90 1010.1
20260831183504 63 114 1.0 2.0 0.00 0.00 0.00 90 1010.1
20260831183004 63 114 1.0 2.0 0.00 0.00 0.00 90 1010.2
20260831182504 63 114 1.0 2.0 0.00 0.00 0.00 90 1010.2
20260831182025 63 114 0.0 1.0 0.00 0.00 0.00 90 1010.3
20260831181504 63 114 0.0 1.0 0.00 0.00 0.00 90 1010.2
20260831181025 63 114 0.0 1.0 0.00 0.00 0.00 90 1010.1
20260831180505 63 114 0.0 1.0 0.00 0.00 0.00 89 1010.0
20260831180004 63 114 1.0 3.0 0.00 0.00 0.00 88 1010.1
20260831175504 64 114 1.0 3.0 0.00 0.00 0.00 88 1009.8
20260831175005 64 114 1.0 3.0 0.00 0.00 0.00 87 1009.9
20260831174504 64 115 1.0 2.0 0.00 0.00 0.00 87 1009.8
20260831174004 65 117 1.0 3.0 0.00 0.00 0.00 86 1009.6
20260831173505 65 120 2.0 3.0 0.00 0.00 0.00 85 1009.8
20260831173005 64 121 2.0 3.0 0.00 0.00 0.00 86 1009.8
20260831172504 64 121 1.0 2.0 0.00 0.00 0.00 87 1009.6
20260831172004 65 121 0.0 2.0 0.00 0.00 0.00 87 1009.7
20260831171503 65 120 0.0 1.0 0.00 0.00 0.00 85 1009.8
20260831171004 66 0 0.0 0.0 0.00 0.00 0.00 84 1009.7
20260831170504 66 120 0.0 1.0 0.00 0.00 0.00 83 1009.6
20260831170005 66 121 1.0 2.0 0.00 0.00 0.00 82 1009.6
20260831165524 67 121 1.0 2.0 0.00 0.00 0.00 80 1009.7
20260831165005 67 121 1.0 3.0 0.00 0.00 0.00 80 1009.7
20260831164524 67 121 1.0 3.0 0.00 0.00 0.00 78 1009.8
20260831164004 67 121 2.0 3.0 0.00 0.00 0.00 79 1009.8
20260831163503 67 121 2.0 3.0 0.00 0.00 0.00 77 1009.9
20260831163005 67 120 2.0 4.0 0.00 0.00 0.00 78 1009.8
20260831162504 68 126 2.0 4.0 0.00 0.00 0.00 78 1010.0
20260831162004 68 140 2.0 4.0 0.00 0.00 0.00 76 1009.9
20260831161526 68 144 3.0 6.0 0.00 0.00 0.00 75 1009.9
20260831161004 69 131 3.0 6.0 0.00 0.00 0.00 74 1010.0
20260831160503 69 134 3.0 7.0 0.00 0.00 0.00 74 1010.1
20260831160004 69 138 4.0 7.0 0.00 0.00 0.00 74 1010.2
20260831155504 69 129 4.0 7.0 0.00 0.00 0.00 76 1009.9
20260831155003 69 130 4.0 7.0 0.00 0.00 0.00 75 1010.0
20260831154504 69 132 4.0 7.0 0.00 0.00 0.00 75 1010.1
20260831154004 69 131 4.0 7.0 0.00 0.00 0.00 74 1010.2
20260831153505 69 129 4.0 7.0 0.00 0.00 0.00 74 1010.0
20260831153004 69 132 3.0 7.0 0.00 0.00 0.00 76 1010.3
20260831152504 69 129 2.0 7.0 0.00 0.00 0.00 74 1010.3
20260831152005 70 118 1.0 4.0 0.00 0.00 0.00 75 1010.1
20260831151505 70 127 1.0 4.0 0.00 0.00 0.00 76 1010.1
20260831151004 70 135 0.0 3.0 0.00 0.00 0.00 75 1010.2
20260831150505 70 114 1.0 3.0 0.00 0.00 0.00 77 1010.2
20260831150005 70 104 1.0 3.0 0.00 0.00 0.00 73 1010.3
20260831145525 70 102 1.0 3.0 0.00 0.00 0.00 76 1010.2
20260831145005 70 102 1.0 3.0 0.00 0.00 0.00 73 1010.3
20260831144505 70 105 2.0 7.0 0.00 0.00 0.00 75 1010.3
20260831144004 70 107 2.0 7.0 0.00 0.00 0.00 74 1010.4
20260831143503 70 118 3.0 9.0 0.00 0.00 0.00 73 1010.6